Wind_Speed
22 22 23 23 22 23 23 22 22 22 23 23 22 22 22 22 22 22 21 20 20 19 20 20 20 20 20 19 19 19 19 19 18 18 19 20 20 20 20 20 20 20 21
23 22 24 23 23 23 23 23 23 22 23 23 22 23 23 23 23 22 22 22 21 21 20 21 21 21 22 22 21 20 20 21 21 20 20 20 21 20 21 22 22 22 22
23 23 24 24 24 24 24 23 23 23 23 23 23 23 23 23 22 22 22 23 22 22 22 22 22 23 22 22 21 21 21 21 22 22 21 21 21 22 22 23 23 23 23
24 24 24 25 26 25 24 24 24 24 24 24 24 24 24 24 24 24 24 24 24 24 24 23 23 24 23 22 22 22 22 22 22 22 22 22 21 22 22 22 23 23 24
25 25 25 25 25 24 25 25 25 24 24 24 25 25 25 25 26 25 25 26 26 25 25 25 25 24 24 23 23 23 23 24 23 23 23 22 22 22 23 23 24 25 25
25 26 26 26 25 25 25 25 25 25 25 25 26 25 25 25 26 25 25 25 25 26 26 26 26 25 24 24 24 24 24 24 24 25 24 24 23 23 23 24 25 25 26
25 25 25 25 26 26 26 25 25 25 25 26 26 26 26 26 25 25 25 25 25 25 26 26 27 26 25 25 24 25 25 25 25 24 25 25 25 24 25 25 25 25 26
26 25 24 25 25 25 25 26 26 26 26 26 26 26 26 26 26 25 26 26 26 25 25 26 26 26 26 26 26 25 25 25 25 25 25 25 25 25 25 25 26 26 26
27 26 26 26 26 25 26 26 26 26 26 26 26 26 26 26 27 27 27 27 26 25 25 25 25 25 26 26 25 25 25 25 25 25 25 25 25 25 25 24 25 25 26
26 26 25 25 26 26 25 25 26 26 26 26 26 27 26 26 26 26 27 27 26 25 24 24 24 24 25 25 25 26 25 25 24 24 24 24 24 25 25 25 25 25 25
25 25 24 24 24 24 24 25 25 25 25 26 26 26 26 26 27 26 26 27 26 26 26 25 25 25 25 25 25 25 25 25 24 24 24 24 25 24 24 25 25 25 25
24 22 22 22 23 23 24 24 25 24 24 25 26 26 27 27 27 26 25 26 27 27 27 26 26 26 26 26 26 25 25 26 25 25 24 25 25 25 25 24 25 25 25
23 22 22 23 24 24 24 24 25 25 26 26 26 27 27 27 28 27 26 26 26 26 27 26 26 26 26 26 25 25 25 26 26 26 26 25 25 25 25 26 26 26 26
24 23 23 23 23 23 23 24 24 25 25 26 26 26 26 27 27 26 26 26 26 26 26 25 26 26 26 27 26 26 26 26 26 26 26 26 26 25 25 26 27 26 25
23 23 23 23 23 23 23 23 23 23 24 24 24 25 24 25 25 26 26 25 25 25 25 25 25 25 26 26 25 25 25 25 25 26 26 26 26 26 26 26 26 26 26
21 21 22 22 22 22 22 22 21 21 21 22 22 23 23 23 24 24 24 24 24 24 24 24 24 25 25 25 25 25 24 24 25 25 25 26 26 26 26 26 26 26 26
21 21 21 22 22 21 21 21 21 21 21 22 22 22 23 23 22 23 23 23 23 24 23 23 24 24 25 25 25 25 25 25 25 25 26 26 25 25 25 25 25 26 26
20 20 20 21 21 21 21 21 20 21 22 21 22 22 22 22 22 22 22 22 23 23 23 23 23 25 25 25 25 25 25 26 26 26 26 26 25 25 25 25 25 26 26
19 19 20 20 20 20 20 20 20 21 21 21 22 22 22 21 21 21 22 22 23 23 23 23 23 24 25 25 25 25 25 26 25 25 25 25 25 25 25 26 25 26 26
19 19 19 19 19 19 20 20 21 21 21 21 21 22 22 21 21 21 22 22 22 23 23 23 23 24 25 25 25 25 25 25 25 25 25 26 25 25 25 25 25 26 26
18 18 18 18 18 18 19 19 20 19 20 20 20 20 21 21 22 22 22 22 22 22 22 22 23 23 24 25 25 25 25 25 25 25 25 26 26 25 25 25 25 26 26
16 16 17 17 17 17 17 17 18 19 19 19 19 20 20 21 22 22 22 22 22 23 22 21 21 22 23 24 24 25 25 25 25 26 26 26 25 25 25 24 25 26 26
14 14 14 14 15 16 17 17 18 17 17 17 18 19 19 19 20 20 20 21 21 22 22 22 21 21 22 23 24 25 25 25 25 25 25 24 24 24 24 23 24 25 26
13 12 13 14 15 16 17 17 16 16 15 15 16 16 16 16 16 17 18 19 20 20 21 22 22 21 21 22 22 23 23 23 23 22 22 22 23 23 23 23 23 24 25
11 11 12 13 14 15 15 15 15 15 14 15 15 15 15 15 15 16 17 18 18 19 20 21 21 22 22 21 21 21 22 21 21 21 21 21 21 22 22 23 23 23 23
10 11 12 13 13 13 13 13 13 14 14 14 15 15 14 14 15 15 16 16 17 17 17 18 19 19 20 20 19 19 20 20 20 21 21 21 21 22 22 23 23 23 22
Wind_Direction
279 278 277 279 281 282 278 275 275 273 273 272 271 271 271 270 271 270 268 271 271 267 263 262 262 262 261 262 263 261 258 256 256 254 253 253 254 253 252 251 251 251 251
278 279 278 278 280 280 278 276 275 274 273 271 269 269 270 268 269 270 270 270 270 267 265 262 263 263 262 262 262 260 259 256 254 254 255 254 254 254 252 250 252 252 251
281 282 278 276 278 278 276 276 274 272 271 271 271 270 268 267 268 269 269 270 269 266 263 262 261 261 261 261 259 258 257 257 256 254 254 254 255 253 252 250 250 251 251
282 283 279 277 276 276 276 275 273 272 270 269 270 269 267 266 267 267 267 269 269 266 263 262 261 260 260 261 259 256 256 256 256 253 253 254 255 254 253 252 251 250 250
284 283 281 279 276 275 275 275 273 272 269 268 268 268 267 267 267 267 267 267 267 265 262 261 260 259 260 259 258 256 255 254 255 254 254 255 254 254 254 254 253 251 251
284 283 281 279 277 275 274 274 274 272 268 267 266 266 267 266 267 266 264 266 266 264 262 261 259 259 259 259 257 256 255 254 253 253 254 255 255 254 255 255 255 253 252
281 281 279 277 277 275 274 272 272 271 270 269 267 266 266 267 267 266 266 266 266 263 261 259 259 259 259 259 257 255 254 253 253 253 253 255 255 255 256 256 255 254 252
279 278 280 280 279 276 275 273 272 271 270 269 268 267 266 266 267 267 267 267 266 265 262 259 259 259 259 258 256 254 253 253 252 253 253 255 255 255 256 256 254 253 252
279 278 279 280 279 276 276 273 272 271 270 270 269 269 267 266 266 267 267 266 265 264 262 259 258 259 258 257 256 254 253 254 254 253 252 254 255 254 255 255 255 254 254
276 277 279 279 279 279 277 273 271 270 269 269 269 270 270 268 266 267 268 266 264 262 260 259 258 257 256 255 254 252 253 254 254 252 252 253 254 254 255 256 254 253 253
275 275 276 277 279 280 277 275 273 270 269 268 269 271 271 271 268 267 266 265 262 259 259 258 257 256 255 254 254 254 253 252 251 252 252 252 252 252 254 256 254 252 252
274 274 274 276 279 279 278 275 274 270 269 269 269 270 271 270 269 267 263 262 261 258 257 257 255 255 253 253 254 252 252 251 251 250 251 251 252 251 252 255 254 251 253
278 276 275 277 277 278 279 278 276 272 270 270 270 270 270 269 269 266 262 260 260 258 257 255 254 253 253 254 253 252 252 252 251 249 250 251 251 250 252 253 253 253 254
277 276 275 277 277 277 278 279 277 274 273 272 271 270 269 268 267 265 263 260 259 257 256 254 253 253 253 253 252 253 253 252 251 249 249 250 250 250 252 253 252 253 254
278 277 278 280 281 280 279 279 277 277 275 271 270 270 270 268 266 264 263 260 259 256 254 254 253 252 252 252 251 253 252 251 251 249 249 250 250 250 251 252 253 253 254
279 279 279 279 281 280 280 278 277 278 276 272 269 268 269 269 266 263 262 261 259 258 255 254 253 252 252 253 252 252 250 250 249 249 250 250 251 251 252 252 252 253 253
279 278 280 281 282 281 281 280 277 277 276 273 271 269 268 269 267 263 262 261 259 257 256 256 254 254 253 253 254 253 250 249 248 250 251 251 252 252 252 252 253 253 252
278 277 279 280 280 280 282 280 278 278 277 275 273 271 269 269 269 267 264 263 260 258 257 257 255 254 254 254 253 252 249 249 251 251 251 251 252 252 252 252 252 252 253
279 277 281 281 281 281 281 280 280 280 278 276 274 271 269 269 269 269 266 262 260 258 258 257 256 253 253 253 253 251 250 251 251 251 250 251 252 251 252 252 251 251 252
282 281 282 283 282 283 281 282 281 280 279 278 275 272 272 271 269 268 267 264 261 259 258 258 257 254 254 253 252 251 251 251 250 251 251 251 252 253 252 251 249 249 251
282 280 282 283 284 285 283 282 281 278 277 278 277 275 274 272 269 265 265 263 262 261 260 259 256 253 253 252 251 250 252 251 251 252 253 252 252 252 251 251 249 248 250
285 284 285 286 288 288 288 286 284 280 278 278 277 277 277 276 271 266 265 264 263 262 260 258 256 255 255 253 252 251 253 253 253 252 253 252 252 252 251 252 250 250 251
298 297 296 294 292 291 291 290 288 286 282 281 281 279 279 279 275 268 265 264 264 261 258 256 256 257 254 252 253 253 255 253 252 251 251 250 250 251 251 252 252 251 251
303 302 302 300 296 295 295 293 292 291 287 284 283 283 282 280 275 269 266 265 262 259 258 257 256 257 256 255 255 254 252 251 250 249 249 250 250 250 251 251 253 252 251
313 310 307 305 303 302 300 296 295 294 293 290 288 286 284 279 273 269 267 265 262 259 259 257 257 257 257 256 254 252 251 250 248 249 250 250 250 249 249 250 251 252 253
319 317 316 315 312 308 306 304 302 300 298 296 293 290 287 283 276 271 271 268 264 261 258 256 255 253 253 253 252 251 250 249 249 248 248 248 249 250 249 250 250 252 254
Height
5857 5856 5855 5854 5853 5852 5851 5850 5850 5848 5847 5847 5846 5845 5844 5844 5844 5844 5843 5843 5843 5843 5843 5843 5844 5844 5844 5845 5845 5845 5845 5846 5846 5846 5847 5848 5849 5850 5851 5852 5852 5853 5854
5851 5850 5849 5848 5847 5846 5845 5844 5844 5843 5842 5841 5841 5840 5839 5839 5839 5839 5838 5838 5838 5838 5838 5838 5839 5839 5839 5840 5840 5840 5840 5841 5842 5842 5843 5843 5844 5845 5846 5847 5848 5849 5850
5845 5844 5843 5842 5841 5840 5839 5838 5838 5837 5836 5836 5835 5835 5834 5834 5833 5833 5833 5833 5833 5832 5832 5833 5833 5833 5834 5834 5834 5835 5835 5836 5837 5837 5838 5839 5839 5840 5841 5842 5843 5844 5845
5839 5838 5837 5836 5835 5834 5833 5832 5832 5831 5830 5830 5830 5829 5828 5828 5827 5827 5827 5827 5827 5827 5827 5827 5827 5828 5828 5828 5828 5829 5830 5831 5831 5832 5833 5834 5835 5835 5836 5837 5838 5839 5840
5833 5831 5830 5829 5828 5827 5826 5826 5825 5825 5824 5824 5823 5823 5822 5821 5821 5820 5820 5820 5820 5820 5820 5821 5821 5821 5822 5822 5823 5823 5824 5825 5826 5827 5828 5829 5829 5830 5831 5832 5832 5833 5834
5826 5825 5823 5822 5821 5820 5819 5819 5818 5818 5817 5817 5817 5816 5815 5815 5814 5814 5813 5813 5813 5813 5814 5814 5814 5815 5816 5816 5817 5818 5818 5819 5820 5821 5822 5823 5824 5825 5826 5826 5827 5828 5829
5819 5818 5816 5815 5814 5813 5812 5812 5811 5811 5810 5810 5810 5809 5809 5808 5808 5807 5807 5806 5806 5806 5807 5807 5808 5808 5809 5810 5810 5811 5812 5813 5814 5815 5816 5817 5818 5819 5820 5820 5821 5822 5823
5812 5811 5810 5808 5807 5806 5805 5805 5804 5803 5803 5802 5802 5802 5802 5802 5801 5800 5800 5799 5799 5799 5800 5800 5801 5802 5802 5803 5804 5805 5806 5807 5808 5809 5810 5811 5811 5812 5813 5814 5815 5816 5817
5805 5804 5802 5801 5800 5799 5797 5797 5796 5796 5796 5795 5794 5795 5795 5795 5794 5793 5792 5792 5792 5792 5792 5793 5794 5794 5795 5796 5797 5798 5799 5800 5801 5802 5803 5804 5805 5806 5807 5808 5809 5810 5810
5796 5795 5794 5793 5792 5791 5790 5789 5788 5788 5788 5787 5787 5786 5787 5786 5786 5786 5785 5785 5785 5785 5785 5786 5787 5787 5788 5789 5790 5791 5792 5793 5794 5795 5797 5798 5799 5800 5801 5802 5802 5803 5804
5788 5788 5786 5786 5785 5784 5783 5782 5781 5780 5780 5779 5779 5778 5778 5778 5778 5778 5778 5778 5778 5778 5779 5779 5780 5781 5781 5782 5783 5784 5785 5786 5788 5789 5790 5791 5793 5793 5794 5795 5796 5797 5798
5781 5780 5779 5778 5777 5777 5776 5775 5773 5773 5772 5772 5771 5771 5770 5770 5770 5770 5771 5771 5771 5771 5772 5772 5773 5773 5774 5775 5776 5777 5778 5780 5781 5782 5784 5785 5786 5787 5788 5789 5789 5790 5791
5774 5773 5772 5771 5770 5769 5768 5767 5766 5765 5764 5764 5763 5763 5762 5762 5762 5762 5763 5764 5764 5764 5764 5765 5766 5766 5767 5768 5769 5770 5772 5773 5774 5775 5776 5778 5779 5780 5781 5782 5783 5783 5784
5767 5766 5765 5764 5763 5762 5761 5760 5758 5757 5756 5756 5755 5755 5755 5754 5754 5754 5755 5756 5756 5757 5757 5758 5758 5759 5760 5761 5762 5764 5765 5766 5767 5768 5769 5771 5772 5773 5774 5775 5776 5776 5777
5760 5759 5758 5757 5756 5755 5754 5752 5751 5750 5749 5748 5748 5747 5747 5747 5746 5747 5747 5747 5749 5749 5750 5751 5751 5752 5753 5754 5755 5756 5757 5759 5760 5761 5762 5764 5765 5766 5767 5768 5769 5770 5771
5753 5753 5751 5750 5749 5748 5746 5745 5744 5743 5742 5741 5741 5740 5740 5739 5739 5739 5739 5740 5740 5742 5743 5743 5744 5745 5746 5747 5748 5749 5750 5752 5753 5754 5756 5757 5758 5759 5760 5761 5762 5763 5763
5747 5746 5745 5744 5743 5741 5740 5739 5738 5737 5736 5735 5734 5733 5733 5732 5732 5732 5732 5732 5733 5734 5735 5736 5737 5738 5738 5739 5740 5742 5743 5745 5746 5748 5749 5749 5751 5751 5752 5753 5754 5755 5756
5741 5740 5739 5738 5737 5736 5734 5733 5732 5730 5729 5728 5727 5726 5726 5725 5725 5725 5725 5725 5726 5726 5728 5729 5729 5730 5731 5732 5733 5735 5736 5737 5739 5740 5742 5743 5744 5744 5745 5747 5747 5748 5749
5735 5734 5733 5732 5731 5730 5728 5727 5725 5724 5723 5721 5721 5720 5719 5718 5718 5718 5718 5719 5719 5720 5720 5721 5722 5723 5724 5725 5726 5728 5729 5730 5732 5733 5734 5735 5736 5737 5738 5739 5740 5741 5743
5729 5728 5727 5726 5725 5724 5722 5721 5719 5718 5716 5715 5714 5713 5712 5712 5712 5712 5712 5712 5712 5713 5713 5714 5715 5716 5717 5718 5719 5721 5722 5724 5725 5726 5727 5728 5729 5730 5731 5732 5733 5735 5736
5724 5723 5722 5720 5719 5718 5716 5715 5713 5712 5710 5709 5708 5707 5706 5705 5705 5705 5705 5705 5706 5706 5706 5707 5708 5709 5710 5711 5712 5714 5715 5716 5717 5719 5720 5721 5722 5723 5724 5725 5726 5727 5729
5718 5717 5716 5715 5714 5712 5711 5709 5707 5706 5704 5703 5702 5701 5699 5698 5698 5698 5698 5698 5699 5699 5700 5700 5701 5702 5703 5704 5705 5706 5708 5709 5710 5712 5713 5714 5715 5716 5717 5718 5719 5720 5721
5714 5712 5711 5710 5709 5707 5706 5704 5702 5700 5699 5697 5696 5695 5693 5692 5691 5691 5691 5691 5692 5692 5693 5694 5695 5696 5696 5697 5698 5699 5700 5701 5703 5704 5705 5707 5708 5709 5710 5711 5712 5713 5714
5711 5709 5708 5706 5705 5703 5701 5699 5697 5695 5694 5692 5691 5690 5688 5687 5686 5685 5685 5685 5685 5686 5687 5688 5689 5689 5690 5690 5691 5692 5693 5694 5696 5697 5698 5699 5701 5702 5703 5704 5705 5706 5707
5707 5706 5705 5703 5701 5699 5697 5695 5693 5691 5690 5688 5686 5685 5683 5682 5681 5681 5680 5680 5680 5680 5680 5681 5682 5683 5683 5684 5685 5686 5687 5688 5689 5690 5692 5693 5694 5695 5697 5698 5698 5699 5700
5706 5704 5702 5700 5698 5696 5693 5691 5689 5687 5686 5684 5682 5681 5679 5678 5677 5676 5675 5675 5675 5675 5675 5675 5676 5676 5677 5678 5679 5680 5681 5682 5683 5684 5685 5687 5688 5689 5690 5691 5692 5693 5693